Date,TemperatureHighF,TemperatureAvgF,TemperatureLowF,DewpointHighF,DewpointAvgF,DewpointLowF,HumidityHigh,HumidityAvg,HumidityLow,PressureMaxIn,PressureMinIn,WindSpeedMaxMPH,WindSpeedAvgMPH,GustSpeedMaxMPH,PrecipitationSumIn
2013-2-1,43.0,38.2,33.3,34.0,28.5,24.0,90,69,48,30.77,30.44,28,7,34,0.01
2013-2-2,43.8,35.3,28.1,27.0,25.0,23.0,82,67,49,30.85,30.65,10,5,14,0.01
2013-2-3,42.8,33.3,23.6,29.0,25.6,21.0,92,74,55,30.65,30.43,17,3,20,0.00
2013-2-4,43.2,39.3,35.3,30.0,26.3,-99.9,71,62,55,30.44,30.32,12,-6,15,0.00
2013-2-5,47.8,38.8,33.0,34.0,29.2,22.0,81,69,45,30.34,30.11,21,5,36,0.00
2013-2-6,39.3,34.0,28.1,32.0,28.2,23.0,95,80,53,30.45,30.25,17,5,18,0.01
2013-2-7,36.0,28.7,25.0,26.0,16.1,-99.9,89,72,61,30.44,30.30,16,-58,17,0.01
2013-2-8,37.5,32.5,27.1,29.0,26.6,24.0,92,79,68,30.44,30.34,20,7,24,0.00
2013-2-9,33.6,30.7,28.2,27.0,22.1,17.0,93,72,53,30.48,30.31,20,13,25,0.00
2013-2-10,35.4,29.3,24.4,26.0,21.4,16.0,94,74,46,30.62,30.49,22,8,23,0.00
2013-2-11,35.0,28.1,20.6,23.0,19.4,16.0,85,70,59,30.61,30.53,12,4,14,0.00
2013-2-12,38.7,33.6,28.5,31.0,25.7,22.0,86,73,63,30.63,30.50,19,4,25,0.00
2013-2-13,42.1,38.9,35.1,32.0,28.4,25.0,77,66,57,30.59,30.41,27,12,32,0.00
2013-2-14,39.8,36.2,32.6,25.0,22.7,19.0,67,58,43,30.82,30.59,19,9,26,0.00
2013-2-15,46.8,38.2,32.5,30.0,26.9,24.0,79,65,50,30.86,30.66,14,4,16,0.00
2013-2-16,46.7,35.7,24.8,34.0,28.4,23.0,93,76,53,30.66,30.18,19,5,32,0.00
2013-2-17,36.4,33.4,30.2,31.0,23.9,18.0,92,69,53,30.46,30.22,19,9,31,0.01
2013-2-18,40.4,32.3,27.0,26.0,20.6,15.0,94,65,38,30.48,30.19,16,5,22,0.00
2013-2-19,39.5,31.7,25.5,29.0,19.2,-99.9,87,66,38,30.18,30.02,18,-6,21,0.00
2013-2-20,35.5,31.5,27.3,28.0,22.1,16.0,93,70,50,30.32,30.15,19,9,23,0.00
2013-2-21,34.5,28.5,20.8,25.0,16.7,13.0,80,62,44,30.45,30.32,18,6,21,0.00
2013-2-22,40.5,34.9,29.1,29.0,23.3,20.0,79,64,46,30.40,30.00,30,14,37,0.00
2013-2-23,37.7,32.3,29.6,28.0,16.9,-99.9,81,55,44,30.54,29.98,25,1,37,0.00
2013-2-24,37.4,30.6,26.0,20.0,16.6,-99.9,71,58,44,30.67,30.53,21,-3,28,0.00
2013-2-25,37.7,30.2,25.1,27.0,18.4,-99.9,82,66,46,30.53,30.28,19,-17,26,0.00
2013-2-26,34.8,30.2,27.5,24.0,14.6,-99.9,81,59,49,30.69,30.43,20,-34,27,0.00
2013-2-27,41.4,31.2,23.4,21.0,18.0,16.0,77,59,37,30.71,30.63,21,6,27,0.00
2013-2-28,41.6,34.4,27.1,33.0,27.1,19.0,91,75,60,30.74,30.65,9,4,14,0.00